Weather in Vedenka

Russia / Primorsky Krai     45°52′36″N   133°54′26″E
temp.,
°C
wind,
m/s
gust,
m/s
humid.,
%
clouds,
%
prec.,
mm/h
press.,
hPa
HPBL,
m
18 june, fri
fri1801:00+15w1293100 0.0 100238
04:00+13w1294100 0.0 100251
07:00+15se1187100 0.0 1001136
10:00+20se3571100 0.0 1001599
13:00+22s4768100 0.6 10001287
16:00+18wsw3890100 1.9 999316
19:00+15e1195100 2.4 100030
22:00+15ese239884 4.2 100288
19 june, sat
sat1901:00+14e2797100 0.3 1002200
04:00+14e2596100 0.3 1001140
07:00+15ese2694100 0.0 1002263
10:00+15se3996100 1.2 1003483
13:00+15e2597100 1.3 1003273
16:00+15ne1194100 1.3 100255
19:00+17e1287100 0.0 1002159
22:00+15se1188100 0.0 100311
20 june, sun
sun2001:00+13ese2289100 0.0 100426
04:00+13ene2282100 0.0 100443
07:00+13e1377100 0.0 1005149
10:00+17ese355976 0.0 1005748
13:00+22ese244593 0.0 10041998
16:00+18sse456297 0.0 1004513
19:00+17sw2375100 0.0 1005376
22:00+13w2294100 0.0 100621
21 june, mon
mon2101:00+11sw119382 0.0 100811
04:00+10wnw0093100 0.0 100810
07:00+12ne1185100 0.0 100985
10:00+17nne1170100 0.0 1009696
13:00+21nnw1255100 0.1 10081513
16:00+23w1249100 0.1 10071481
19:00+21wnw246867 0.0 1007253
22:00+15wnw2279100 0.0 100816
22 june, tue
tue2201:00+12s11875 0.0 100911
04:00+11sw2291100 0.0 100914
07:00+13ssw128581 0.0 1010112
10:00+20sw23615 0.0 1011576
13:00+24w32525 0.0 10091081
16:00+26wsw32460 0.0 10081561
19:00+24w24630 0.0 1007181
22:00+17sw12810 0.0 100811